Location: *
(45.9500°N, 9.0833°E)
Time: 10:45:48
(UTC+00:00)

A-11 Canister half - All Passes

Search period start: 15 June 2021 00:00
Search period end: 25 June 2021 00:00
Orbit: 1527 x 1681 km, 47.3° (Epoch: 14 June)

Date Brightness Start Highest point End Pass type
(mag) Time Alt. Az. Time Alt. Az. Time Alt. Az.
15 Jun - 01:25:02 10° WSW 01:34:24 87° NNW 01:43:50 10° E visible
15 Jun - 03:30:19 10° WNW 03:39:41 89° N 03:49:12 10° ESE daylight
15 Jun - 05:35:25 10° WNW 05:44:19 51° SW 05:53:26 10° SE daylight
15 Jun - 07:42:25 10° W 07:47:38 16° SW 07:52:56 10° SSW daylight
15 Jun - 20:59:22 10° SSE 21:04:47 17° SE 21:10:09 10° E visible
15 Jun - 22:59:07 10° SW 23:08:06 53° SE 23:17:01 10° ENE visible
16 Jun - 01:03:22 10° WSW 01:12:45 88° NNW 01:22:09 10° E visible
16 Jun - 03:08:40 10° W 03:18:02 88° NNE 03:27:31 10° ESE daylight
16 Jun - 05:13:45 10° WNW 05:22:42 53° SW 05:31:51 10° SE daylight
16 Jun - 07:20:31 10° W 07:26:05 17° SW 07:31:44 10° SSW daylight
16 Jun - 20:38:12 10° SSE 20:43:14 16° SE 20:48:14 10° E visible
16 Jun - 22:37:34 10° SW 22:46:30 51° SE 22:55:21 10° ENE visible
17 Jun - 00:41:42 10° WSW 00:51:05 89° NNW 01:00:29 10° ENE visible
17 Jun - 02:47:00 10° W 02:56:22 87° NNE 03:05:51 10° ESE visible
17 Jun - 04:52:06 10° WNW 05:01:05 55° SW 05:10:15 10° SE daylight
17 Jun - 06:58:39 10° W 07:04:31 19° SW 07:10:28 10° SSW daylight
17 Jun - 20:17:04 10° SSE 20:21:41 15° SE 20:26:15 10° E visible
17 Jun - 22:16:00 10° SW 22:24:53 49° SE 22:33:40 10° ENE visible
18 Jun - 00:20:02 10° WSW 00:29:26 90° SSE 00:38:49 10° ENE visible
18 Jun - 02:25:20 10° W 02:34:42 86° N 02:44:09 10° E visible
18 Jun - 04:30:26 10° WNW 04:39:28 57° SSW 04:48:39 10° SE daylight
18 Jun - 06:36:48 10° W 06:42:57 20° SW 06:49:12 10° S daylight
18 Jun - 19:56:01 10° SSE 20:00:08 14° SE 20:04:13 10° E visible
18 Jun - 21:54:27 10° SSW 22:03:17 47° SE 22:12:00 10° ENE visible
18 Jun - 23:58:22 10° WSW 00:07:46 88° SSE 00:17:09 10° ENE visible
19 Jun - 02:03:40 10° W 02:13:03 86° N 02:22:29 10° E visible
19 Jun - 04:08:47 10° WNW 04:17:51 59° SSW 04:27:04 10° SE daylight
19 Jun - 06:14:59 10° W 06:21:23 21° SW 06:27:54 10° S daylight
19 Jun - 19:35:04 10° SE 19:38:35 13° ESE 19:42:05 10° E daylight
19 Jun - 21:32:54 10° SSW 21:41:41 45° SE 21:50:20 10° ENE visible
19 Jun - 23:36:42 10° WSW 23:46:07 87° SSE 23:55:29 10° ENE visible
20 Jun - 01:42:00 10° W 01:51:23 85° N 02:00:48 10° E visible
20 Jun - 03:47:07 10° WNW 03:56:14 61° SSW 04:05:28 10° SE daylight
20 Jun - 05:53:11 10° W 05:59:49 22° SW 06:06:34 10° S daylight
20 Jun - 19:14:16 10° SE 19:17:02 12° ESE 19:19:48 10° ESE daylight
20 Jun - 21:11:22 10° SSW 21:20:05 43° SE 21:28:39 10° ENE visible
20 Jun - 23:15:03 10° WSW 23:24:28 86° SSE 23:33:50 10° ENE visible
21 Jun - 01:20:20 10° W 01:29:43 84° N 01:39:07 10° E visible
21 Jun - 03:25:28 10° WNW 03:34:36 63° SSW 03:43:51 10° SE daylight
21 Jun - 05:31:24 10° W 05:38:16 24° SW 05:45:13 10° S daylight
21 Jun - 18:53:51 10° SE 18:55:30 11° ESE 18:57:08 10° ESE daylight
21 Jun - 20:49:50 10° SSW 20:58:29 41° SE 21:06:59 10° ENE visible
21 Jun - 22:53:23 10° WSW 23:02:49 84° SSE 23:12:10 10° ENE visible
22 Jun - 00:58:40 10° W 01:08:03 84° N 01:17:27 10° E visible
22 Jun - 03:03:49 10° WNW 03:12:59 65° SSW 03:22:14 10° SE daylight
22 Jun - 05:09:38 10° W 05:16:41 25° SW 05:23:50 10° S daylight
22 Jun - 20:28:18 10° SSW 20:36:53 40° SE 20:45:18 10° ENE visible
22 Jun - 22:31:43 10° WSW 22:41:10 83° SSE 22:50:30 10° ENE visible
23 Jun - 00:36:59 10° W 00:46:23 83° N 00:55:46 10° E visible
23 Jun - 02:42:09 10° WNW 02:51:21 67° SSW 03:00:37 10° SE visible
23 Jun - 04:47:53 10° W 04:55:07 26° SW 05:02:27 10° S daylight
23 Jun - 20:06:47 10° SSW 20:15:17 38° SE 20:23:37 10° ENE visible
23 Jun - 22:10:03 10° WSW 22:19:31 81° SSE 22:28:51 10° ENE visible
24 Jun - 00:15:18 10° W 00:24:43 83° N 00:34:05 10° E visible
24 Jun - 02:20:30 10° WNW 02:29:43 69° SSW 02:39:00 10° SE visible
24 Jun - 04:26:08 10° W 04:33:32 28° SW 04:41:03 10° S daylight
24 Jun - 19:45:17 10° SSW 19:53:42 36° SE 20:01:56 10° ENE visible
24 Jun - 21:48:24 10° WSW 21:57:52 79° SSE 22:07:12 10° ENE visible
